This is the latest recevied weather packets stored in our database for station/object KD8DLP-13. If no packets are shown the sender has not sent any weather packets the latest 10 day(s).
| Time | Temp. | Humidity | Pressure | Rain* | Wind** | Luminosity | Snow |
|---|---|---|---|---|---|---|---|
| 1777498334 | 8.89° C | 92% | 1013.8 hPa | 0 mm | - | 84 W/m² | - |
| 1777498033 | 8.89° C | 92% | 1014 hPa | 0 mm | - | 112 W/m² | - |
| 1777497729 | 8.89° C | 92% | 1013.7 hPa | 0 mm | - | 164 W/m² | - |
| 1777497426 | 8.89° C | 93% | 1013.7 hPa | 0 mm | - | 171 W/m² | - |
| 1777497122 | 8.89° C | 93% | 1013.8 hPa | 0 mm | - | 204 W/m² | - |
| 1777496819 | 8.89° C | 93% | 1013.6 hPa | 0 mm | - | 145 W/m² | - |
| 1777496516 | 8.89° C | 94% | 1013.8 hPa | 0 mm | - | 144 W/m² | - |
| 1777496211 | 8.33° C | 94% | 1013.6 hPa | 0 mm | - | 192 W/m² | - |
| 1777495908 | 8.33° C | 95% | 1013.6 hPa | 0 mm | - | 168 W/m² | - |
| 1777495604 | 8.33° C | 95% | 1013.6 hPa | 0 mm | - | 161 W/m² | - |
| 1777495299 | 8.33° C | 95% | 1013.7 hPa | 0 mm | - | 131 W/m² | - |
| 1777494998 | 8.33° C | 95% | 1013.7 hPa | 0 mm | - | 145 W/m² | - |
| 1777494694 | 7.78° C | 95% | 1013.8 hPa | 0 mm | - | 128 W/m² | - |
| 1777494392 | 7.78° C | 96% | 1013.7 hPa | 0 mm | - | 91 W/m² | - |
| 1777494088 | 7.78° C | 96% | 1013.7 hPa | 0 mm | - | 88 W/m² | - |
| 1777493786 | 7.78° C | 96% | 1013.3 hPa | 0 mm | - | 98 W/m² | - |
| 1777493484 | 7.78° C | 96% | 1013.6 hPa | 0 mm | - | 126 W/m² | - |
| 1777493180 | 7.78° C | 96% | 1013.6 hPa | 0 mm | - | 98 W/m² | - |
| 1777492877 | 7.78° C | 96% | 1013.4 hPa | 0 mm | - | 79 W/m² | - |
| 1777492573 | 7.78° C | 96% | 1013.6 hPa | 0 mm | - | 84 W/m² | - |
| 1777492268 | 7.78° C | 96% | 1013.5 hPa | 1.27 mm | - | 102 W/m² | - |
| 1777491966 | 7.78° C | 96% | 1013.6 hPa | 1.27 mm | - | 86 W/m² | - |
| 1777491662 | 7.78° C | 96% | 1013.4 hPa | 0 mm | - | 124 W/m² | - |
| 1777491361 | 7.78° C | 96% | 1013.5 hPa | 0 mm | - | 116 W/m² | - |
| 1777491057 | 7.78° C | 96% | 1013.7 hPa | 0 mm | - | 87 W/m² | - |
* Rain latest hour (hover to see other rain measurements)
** Current wind speed in m/s (hover to see current wind gust speed)